Flag for U.S.A. Weather past 2 weeks in Amarillo, Texas, U.S.A.

Now
30 °F

Overcast.


Feels Like: 20 °F
Forecast: 17 / 35 °F
Wind: 13 mph from North

Location: Amarillo International Airport

Current Time: Dec 26, 2014 at 8:27:59 PM

Latest Report: Dec 26, 2014 at 7:53 PM


Visibility: 10 mi

Pressure: 30.12 "Hg

Humidity: 79%

Dew point: 24 °F

Location of AmarilloLocation

Historic Weather in Amarillo — Graph

°F

Amarillo temperature yesterday

Maximum temperature yesterday: 58 °F (at 12:53 PM)
Minimum temperature yesterday: 38 °F (at 12:53 AM)
Average temperature yesterday: 45 °F

Past Weeks' High & Low Weather Summary

 TemperatureHumidityPressure
High69 °F (Dec 13, 2:53 PM)100% (Dec 12, 2:53 AM)30.38 "Hg (Dec 12, 2:53 AM)
Low21 °F (Dec 24, 7:53 AM)15% (Dec 25, 12:53 PM)29.49 "Hg (Dec 14, 1:53 PM)
Average41 °F70%29.95 "Hg
* Reported Dec 11 6:53 PM — Dec 26 6:53 PM, Amarillo, Weather by CustomWeather, © 2014

Note: Actual official high and low records may vary slightly from our data, if they occured in-between our weather recording intervals... More about our weather records

Advertising

Amarillo weather history for previous 24 hours

 ConditionsComfort  
Time TempWeatherWind HumidityBarometerVisibility
6:53 PM
Dec 26
30 °FOvercast.12 mph79%30.08 "Hg10 mi
5:53 PM31 °FOvercast.12 mph76%30.03 "Hg10 mi
4:53 PM31 °FOvercast.12 mph79%29.98 "Hg10 mi
3:53 PM32 °FMostly cloudy.14 mph75%29.93 "Hg10 mi
2:53 PM33 °FOvercast.10 mph72%29.90 "Hg10 mi
1:53 PM33 °FOvercast.13 mph72%29.90 "Hg5 mi
12:53 PM33 °FMostly cloudy.12 mph72%29.89 "Hg10 mi
11:53 AM32 °FOvercast.15 mph75%29.91 "Hg10 mi
11:03 AM31 °FOvercast.17 mph79%29.92 "Hg10 mi
9:53 AM29 °FLow clouds.13 mph85%29.92 "Hg10 mi
8:53 AM28 °FLow clouds.17 mph89%29.87 "Hg10 mi
7:53 AM27 °FLow clouds.18 mph89%29.84 "Hg10 mi
6:53 AM26 °FLow clouds.13 mph88%29.84 "Hg10 mi
4:53 AM37 °FClear.7 mph60%29.74 "Hg10 mi
3:53 AM36 °FClear.12 mph64%29.72 "Hg10 mi
2:53 AM38 °FClear.14 mph58%29.70 "Hg10 mi
1:53 AM38 °FClear.14 mph58%29.67 "Hg10 mi
12:53 AM40 °FClear.15 mph53%29.66 "Hg10 mi
11:53 PM
Dec 25
39 °FClear.15 mph55%29.67 "Hg10 mi
10:53 PM42 °FClear.15 mph49%29.66 "Hg10 mi
9:53 PM41 °FClear.14 mph45%29.67 "Hg10 mi
8:53 PM43 °FClear.13 mph42%29.67 "Hg10 mi
Weather by CustomWeather, © 2014

See weather overviewHow to use our weather pages